[[{"header":{"parameterUnit":"m.s-1","parameterCategory":2,"la1":30.2991,"la2":30.254,"lo1":-89.0895,"lo2":-89.0444,"dy":0.0017,"dx":0.0017,"nx":28,"ny":28,"refTime":"2023-08-09T03:00:00:Z","depth":"0","parameterNumber":2,"parameterNumberName":"U-component_of_CURRENTS"},"data":[0,0,0,0,0,0,0,0,0,0,0,0,0,0,0,0,0,0,0,0,0,0,0,0,0,0,0,0,0,0,0,0,0,0,0,0,0,0,0,0,0,0,0,0,0,0,0,0,0,0,0,0,0,0,0,0,0,0,0.436,0.436,0,0.4354,0.4354,0.4354,0.4363,0.4364,0.4364,0.4364,0.4477,0.448,0.4483,0,0,0,0,0,0,0,0,0,0,0,0,0,0.4237,0.424,0.436,0.436,0.4359,0.4354,0.4354,0.4354,0.4363,0.4364,0.4364,0.4364,0.4476,0.448,0.4483,0,0,0,0,0,0,0,0,0,0,0,0,0,0.4268,0.4241,0.436,0.4362,0.4362,0.4354,0.4354,0.4354,0.4363,0.4364,0.4364,0.4364,0.4475,0.4479,0.4484,0.4505,0,0,0.4497,0.4499,0,0,0,0,0,0,0,0,0.4267,0.4273,0.4362,0.4362,0.4362,0.4358,0.4352,0.441,0.4363,0.4364,0.4364,0.4364,0.4447,0.4454,0.4453,0.451,0.4515,0.4497,0.45,0.4502,0.4503,0,0,0,0,0,0,0,0.4265,0.4272,0.4359,0.4362,0.4362,0.4314,0.4321,0.4362,0.4408,0.4364,0.4365,0.4361,0.4448,0.4449,0.4456,0.4517,0.4497,0.4501,0.4503,0.4505,0.4637,0.4638,0,0,0,0,0,0,0.427,0.4272,0.4359,0.4359,0.4312,0.4317,0.4324,0.4361,0.4405,0.4411,0.4361,0.4362,0.4441,0.4451,0.446,0.4563,0.4502,0.4506,0.4508,0.4636,0.4637,0.4638,0,0,0,0,0,0,0.4268,0.428,0.436,0.4311,0.4317,0.432,0.436,0.436,0.4361,0.4401,0.4409,0.4362,0.4442,0.4454,0.4526,0.4565,0.4507,0.4511,0.4635,0.4636,0.4638,0.4722,0,0,0,0,0,0,0.4265,0.428,0.4305,0.4313,0.4321,0.4363,0.4359,0.436,0.4358,0.4359,0.4405,0.4415,0.4443,0.4519,0.453,0.457,0.4515,0.4634,0.4635,0.4637,0.4718,0.4726,0.4733,0,0,0,0,0,0.4262,0.4295,0.4308,0.4317,0.4359,0.4363,0.4363,0.4364,0.4358,0.4364,0.4412,0.4413,0.4536,0.4525,0.4537,0.4579,0.4633,0.4635,0.4637,0.4715,0.4725,0.4733,0,0,0,0,0,0,0.4247,0.4299,0.4313,0.4361,0.4365,0.4364,0.437,0.4362,0.4398,0.441,0.4441,0.4457,0.4534,0.4535,0.452,0.4616,0.4578,0.4583,0.4633,0.4643,0.465,0.4698,0.4518,0,0,0,0,0,0.4259,0.4302,0.4327,0.4358,0.437,0.4368,0.4368,0.4371,0.4398,0.4411,0.444,0.4483,0.4549,0.4579,0.4624,0.4681,0.4734,0.4707,0.4714,0.4721,0.4765,0.4868,0.4891,0.4645,0.4645,0.4645,0,0,0.4244,0.4289,0.4302,0.4357,0.4365,0.4393,0.4371,0.438,0.4413,0.4423,0.4482,0.4517,0.457,0.4647,0.4677,0.4655,0.4819,0.4723,0.4729,0.4771,0.4873,0.4897,0.4919,0.4646,0.4646,0.4646,0,0,0.4248,0.4298,0.4336,0.4355,0.4385,0.44,0.4404,0.4415,0.4438,0.4495,0.4523,0.4596,0.4649,0.4719,0.476,0.4833,0.4859,0.481,0.4893,0.4992,0.5014,0.5035,0.5145,0.5175,0.4809,0.4809,0.4809,0,0.4238,0.4297,0.4335,0.4381,0.4394,0.4409,0.4435,0.4472,0.4501,0.4535,0.4527,0.4652,0.4704,0.4829,0.4872,0.486,0.4912,0.4859,0.5007,0.5028,0.5048,0.5156,0.5187,0.4814,0.4813,0.4813,0.4812,0,0.4269,0.4313,0.4333,0.4414,0.4438,0.4455,0.4514,0.4547,0.4573,0.4607,0.4711,0.4785,0.4855,0.4881,0.4923,0.5069,0.5062,0.5012,0.4995,0.5079,0.5185,0.5217,0.482,0.4818,0.4817,0.4816,0,0,0.4279,0.434,0.4355,0.4367,0.4454,0.4463,0.4558,0.463,0.4669,0.4743,0.4814,0.4968,0.4982,0.5031,0.5064,0.5179,0.5387,0.5168,0.5171,0.5298,0.5624,0.5527,0.5552,0.5353,0.5359,0.5363,0.5647,0,0.4295,0.4351,0.4395,0.4432,0.4459,0.4513,0.4579,0.4654,0.4722,0.4798,0.4923,0.5005,0.5042,0.5076,0.5206,0.5342,0.5472,0.5316,0.5507,0.5514,0.5434,0.5586,0.5265,0.5482,0.5678,0.5684,0.5687,0,0.4336,0.4365,0.4398,0.4424,0.444,0.4467,0.4556,0.4617,0.4764,0.482,0.4946,0.5017,0.5239,0.5218,0.5542,0.5435,0.5558,0.5659,0.567,0.5581,0.5476,0.5426,0.5533,0.5382,0.5736,0.5732,0.5729,0,0.4335,0.4369,0.438,0.4395,0.4444,0.4465,0.4501,0.4621,0.4684,0.4844,0.4908,0.512,0.5242,0.5445,0.5676,0.5622,0.6009,0.5934,0.597,0.5964,0.5734,0.5697,0.5736,0.6167,0.6166,0.6165,0.6164,0,0.4375,0.4388,0.4358,0.4377,0.4382,0.4422,0.4469,0.4544,0.4658,0.4752,0.4906,0.5029,0.5309,0.5538,0.5723,0.597,0.6048,0.6054,0.6051,0.575,0.5714,0.5602,0.5555,0.6176,0.6174,0.6171,0.617,0,0.4446,0.4415,0.4415,0.4403,0.4392,0.441,0.4454,0.4483,0.4595,0.4732,0.4795,0.5037,0.5308,0.556,0.5911,0.6019,0.609,0.6304,0.5945,0.5895,0.5734,0.5702,0.5635,0.549,0.6403,0.6403,0.6403,0,0.4523,0.4511,0.4442,0.4411,0.4411,0.4416,0.4414,0.4477,0.4522,0.4741,0.4807,0.5075,0.5248,0.5703,0.5908,0.6193,0.6044,0.6083,0.5924,0.5743,0.5709,0.5508,0.5375,0.5669,0.5663,0.5658,0.5653,0,0.4653,0.4581,0.4563,0.448,0.4433,0.4397,0.4399,0.4416,0.4511,0.4603,0.4762,0.4909,0.527,0.5398,0.5734,0.5881,0.5744,0.5985,0.5882,0.5239,0.4941,0.4787,0.5487,0.5607,0.5612,0.5615,0.5618,0.562,0.4732,0.4712,0.4609,0.454,0.4455,0.4353,0.4302,0.4309,0.4335,0.4398,0.4627,0.4713,0.4941,0.5322,0.5437,0.5397,0.5459,0.5294,0.5314,0.5162,0.487,0.549,0.5534,0.5538,0.5541,0.5545,0.5547,0,0.4801,0.4724,0.4669,0.4513,0.4379,0.4342,0.4255,0.4158,0.412,0.4205,0.4291,0.4397,0.4495,0.4668,0.4819,0.4767,0.4561,0.467,0.4294,0.4235,0.4859,0.4667,0.4417,0.4417,0.4417,0.4417,0.4417,0.4417,0.481,0.474,0.4678,0.4453,0.4326,0.4078,0.3988,0.3865,0.3838,0.3735,0.3724,0.3856,0.4169,0.436,0.4316,0.4238,0.3982,0.3784,0.3896,0.4302,0.4358,0.4412,0.4218,0.3878,0.3877,0.2993,0.2986,0.2982]},{"header":{"parameterUnit":"m.s-1","parameterCategory":2,"la1":30.2991,"la2":30.254,"lo1":-89.0895,"lo2":-89.0444,"dy":0.0017,"dx":0.0017,"nx":28,"ny":28,"refTime":"2023-08-09T03:00:00:Z","depth":"0","parameterNumber":3,"parameterNumberName":"V-component_of_CURRENTS"},"data":[0,0,0,0,0,0,0,0,0,0,0,0,0,0,0,0,0,0,0,0,0,0,0,0,0,0,0,0,0,0,0,0,0,0,0,0,0,0,0,0,0,0,0,0,0,0,0,0,0,0,0,0,0,0,0,0,0,0,0.0102,0.0101,0,0.0029,0.0028,0.0027,-0.0069,-0.007,-0.0071,-0.0072,-0.0226,-0.0229,-0.0232,0,0,0,0,0,0,0,0,0,0,0,0,0,0.0106,0.0106,0.0102,0.0101,0.0101,0.003,0.0028,0.0027,-0.0068,-0.007,-0.0071,-0.0072,-0.0225,-0.0228,-0.0232,0,0,0,0,0,0,0,0,0,0,0,0,0,0.0071,0.0106,0.0102,0.0049,0.0043,0.003,0.0028,0.0026,-0.0068,-0.007,-0.0071,-0.0073,-0.0224,-0.0228,-0.0233,-0.0227,0,0,-0.0247,-0.0249,0,0,0,0,0,0,0,0,0.0073,0.0071,0.0057,0.0052,0.0047,-0.0008,-0.0027,-0.0061,-0.0068,-0.0031,-0.0072,-0.0074,-0.0156,-0.0166,-0.0182,-0.0235,-0.0241,-0.0247,-0.025,-0.0252,-0.0253,0,0,0,0,0,0,0,0.0076,0.0073,0.0068,0.0057,0.005,0.0011,0.0004,-0.0034,-0.0089,-0.0034,-0.004,-0.004,-0.016,-0.0177,-0.0186,-0.0243,-0.0247,-0.0251,-0.0254,-0.0256,-0.0295,-0.0293,0,0,0,0,0,0,0.01,0.0076,0.007,0.0066,0.0062,0.0013,0.0005,0.0007,-0.0087,-0.01,-0.0038,-0.0044,-0.0169,-0.0181,-0.0192,-0.0157,-0.0252,-0.0256,-0.0259,-0.0296,-0.0294,-0.0292,0,0,0,0,0,0,0.01,0.01,0.0073,0.0073,0.0067,0.0015,0.0018,0.0007,-0.0006,-0.0088,-0.0105,-0.0038,-0.017,-0.0186,-0.021,-0.0165,-0.0258,-0.0262,-0.0298,-0.0296,-0.0293,-0.0109,0,0,0,0,0,0,0.0101,0.0101,0.0111,0.0075,0.0069,0.0085,0.002,0.0007,-0.0001,-0.0009,-0.0093,-0.0109,-0.0173,-0.0203,-0.0215,-0.0173,-0.0266,-0.0301,-0.0297,-0.0294,-0.0117,-0.0101,-0.0086,0,0,0,0,0,0.0101,0.012,0.0112,0.0111,0.0084,0.0088,0.0081,0.0034,0.0001,0.0012,-0.0046,-0.0106,-0.0192,-0.0205,-0.0219,-0.0178,-0.0302,-0.0298,-0.0294,-0.0124,-0.0104,-0.0087,0,0,0,0,0,0,0.0137,0.0112,0.0101,0.0115,0.0115,0.0074,0.0075,0.0051,0.0015,0.0001,-0.0084,-0.0103,-0.0105,-0.0168,-0.018,-0.0182,-0.0257,-0.0256,-0.0123,-0.0104,-0.0089,-0.0045,-0.027,0,0,0,0,0,0.0153,0.0155,0.014,0.0158,0.0156,0.0122,0.0117,0.0095,0.006,0.0041,-0.0015,-0.0072,-0.0099,-0.0123,-0.0164,-0.0164,-0.0204,-0.0149,-0.0133,-0.0119,-0.0094,-0.0106,-0.0089,-0.028,-0.028,-0.028,0,0,0.0177,0.0163,0.0167,0.0166,0.0152,0.0174,0.0113,0.012,0.0144,0.0032,0.0034,-0.0017,-0.0086,-0.0083,-0.0091,-0.0131,-0.0086,-0.0114,-0.0102,-0.0084,-0.01,-0.0081,-0.0065,-0.0277,-0.0278,-0.0278,0,0,0.023,0.0213,0.0234,0.0238,0.0235,0.0218,0.0231,0.0205,0.0194,0.0203,0.0132,0.0119,0.0057,0.0031,0.0007,0.0085,0.0001,0.0059,0.0171,0.0159,0.0176,0.0189,0.0169,0.0179,0.0062,0.0063,0.0063,0,0.0261,0.0287,0.0247,0.0275,0.0292,0.0249,0.0295,0.0287,0.026,0.0272,0.0226,0.0186,0.0123,0.015,0.0172,0.0126,0.0094,0.0109,0.0183,0.0196,0.0207,0.0182,0.0191,0.0072,0.0071,0.007,0.0069,0,0.0323,0.0357,0.0373,0.0391,0.0406,0.0439,0.0431,0.0443,0.0426,0.042,0.0444,0.0374,0.0352,0.0333,0.0275,0.0327,0.0271,0.0211,0.0144,0.0238,0.0204,0.0211,0.0085,0.0082,0.0079,0.0077,0,0,0.0368,0.041,0.042,0.0461,0.0473,0.0496,0.0543,0.0584,0.0628,0.0605,0.0669,0.0628,0.0591,0.0563,0.0493,0.0482,0.0529,0.0389,0.0383,0.0384,0.0499,0.0444,0.0444,0.0477,0.0479,0.0481,0.0447,0,0.0438,0.0522,0.0521,0.0619,0.0666,0.0656,0.0707,0.0735,0.0746,0.0791,0.0756,0.0777,0.0678,0.0677,0.0659,0.057,0.0553,0.0543,0.0394,0.039,0.0343,0.0453,0.0401,0.0366,0.0452,0.0453,0.0454,0,0.0497,0.0551,0.0655,0.0745,0.0764,0.081,0.0888,0.0934,0.098,0.0992,0.1013,0.0972,0.0983,0.087,0.0792,0.0787,0.0665,0.0581,0.0576,0.0469,0.0348,0.0282,0.0373,0.0117,0.0463,0.0462,0.0461,0,0.0546,0.0648,0.0738,0.0766,0.085,0.0899,0.0943,0.0997,0.1067,0.1126,0.1188,0.1163,0.1179,0.105,0.0888,0.084,0.0786,0.0686,0.0521,0.0514,0.0415,0.0396,0.0256,0.0621,0.0622,0.0622,0.0622,0,0.0613,0.0688,0.0769,0.082,0.0939,0.0966,0.1094,0.1129,0.1219,0.1345,0.1297,0.1391,0.1225,0.117,0.0974,0.0798,0.085,0.0578,0.052,0.0475,0.0464,0.0187,0.0073,0.062,0.0621,0.0621,0.0621,0,0.0647,0.0702,0.0816,0.0924,0.0966,0.1047,0.1192,0.1287,0.1355,0.1523,0.1558,0.1586,0.152,0.1324,0.1133,0.0929,0.06,0.0645,0.0606,0.0544,0.0134,0.0034,-0.0139,-0.0227,0.0469,0.0468,0.0466,0,0.0659,0.0731,0.0883,0.0961,0.1013,0.1142,0.1242,0.1344,0.1466,0.1659,0.1757,0.1756,0.1788,0.1495,0.1128,0.0795,0.0564,0.0509,0.0403,0.0143,-0.0013,-0.0097,-0.0164,0.0338,0.0336,0.0334,0.0333,0,0.0696,0.0759,0.0851,0.1015,0.1136,0.1299,0.1453,0.1585,0.1746,0.1909,0.2113,0.2157,0.1871,0.1548,0.1071,0.0808,0.0334,0.0462,0.0206,-0.0093,-0.0204,-0.0328,0.0317,0.0318,0.0319,0.032,0.0321,0.0322,0.0702,0.0786,0.0916,0.1071,0.1222,0.1441,0.1615,0.181,0.2058,0.2325,0.2351,0.2435,0.1907,0.1261,0.089,0.0149,0.02,-0.0102,-0.0191,-0.0243,-0.0357,0.0263,0.0185,0.0186,0.0186,0.0187,0.0187,0,0.0702,0.0821,0.0967,0.1176,0.1357,0.1444,0.1746,0.1949,0.2279,0.2464,0.2633,0.2385,0.1728,0.1052,0.0089,-0.0412,-0.0584,-0.0686,-0.0836,-0.0863,-0.0315,-0.0353,-0.0567,-0.0567,-0.0566,-0.0566,-0.0566,-0.0566,0.0715,0.0844,0.0946,0.1237,0.1409,0.171,0.1915,0.2206,0.2404,0.2646,0.2667,0.2648,0.214,0.0415,-0.0764,-0.1032,-0.1324,-0.1417,-0.1522,-0.1203,-0.1156,-0.1112,-0.1178,-0.1561,-0.1562,-0.2053,-0.2059,-0.2063]}],[{"header":{"parameterUnit":"m.s-1","parameterCategory":2,"la1":30.2991,"la2":30.254,"lo1":-89.0895,"lo2":-89.0444,"dy":0.0017,"dx":0.0017,"nx":28,"ny":28,"refTime":"2023-08-09T03:00:00:Z","depth":"2","parameterNumber":2,"parameterNumberName":"U-component_of_CURRENTS"},"data":[0,0,0,0,0,0,0,0,0,0,0,0,0,0,0,0,0,0,0,0,0,0,0,0,0,0,0,0,0,0,0,0,0,0,0,0,0,0,0,0,0,0,0,0,0,0,0,0,0,0,0,0,0,0,0,0,0,0,0.2954,0.2956,0,0.314,0.3142,0.3144,0.3301,0.3303,0.3305,0.3307,0.3575,0.358,0.3585,0,0,0,0,0,0,0,0,0,0,0,0,0,0.2842,0.2842,0.2953,0.2956,0.2958,0.314,0.3142,0.3145,0.3301,0.3303,0.3306,0.3308,0.3573,0.3579,0.3586,0,0,0,0,0,0,0,0,0,0,0,0,0,0.2943,0.2842,0.2953,0.306,0.3071,0.3139,0.3142,0.3145,0.3301,0.3303,0.3306,0.3309,0.3571,0.3579,0.3587,0.3581,0,0,0.3611,0.3615,0,0,0,0,0,0,0,0,0.2937,0.2947,0.3041,0.3052,0.3065,0.3202,0.3202,0.3296,0.33,0.3212,0.3307,0.331,0.3457,0.3474,0.35,0.3593,0.3605,0.3612,0.3617,0.3621,0.3623,0,0,0,0,0,0,0,0.293,0.2941,0.3026,0.3044,0.3059,0.3136,0.3152,0.322,0.3316,0.322,0.3232,0.3254,0.3464,0.3491,0.3507,0.3609,0.3612,0.3619,0.3624,0.3627,0.3917,0.3919,0,0,0,0,0,0,0.2901,0.2933,0.302,0.3032,0.3009,0.3135,0.3153,0.3154,0.3314,0.3341,0.3252,0.3261,0.3476,0.3498,0.3517,0.3716,0.3621,0.3628,0.3633,0.3914,0.3917,0.392,0,0,0,0,0,0,0.2898,0.2906,0.3012,0.299,0.3009,0.3133,0.3133,0.3156,0.3249,0.3338,0.3367,0.3329,0.3479,0.3506,0.3657,0.372,0.3632,0.3639,0.391,0.3915,0.3919,0.3987,0,0,0,0,0,0,0.2893,0.2903,0.2906,0.2986,0.3009,0.3104,0.3132,0.3158,0.3255,0.3271,0.3412,0.3437,0.3483,0.3645,0.3665,0.373,0.3645,0.3907,0.3912,0.3917,0.3981,0.3993,0.4003,0,0,0,0,0,0.2888,0.2885,0.2904,0.2917,0.3004,0.3106,0.3127,0.3223,0.3257,0.3314,0.342,0.3436,0.3692,0.3654,0.3677,0.3746,0.3904,0.3911,0.3917,0.3976,0.3991,0.4003,0,0,0,0,0,0,0.285,0.2903,0.2926,0.2942,0.3038,0.3135,0.3202,0.3249,0.3372,0.3412,0.3481,0.3514,0.367,0.3694,0.365,0.3843,0.3796,0.3807,0.3833,0.3847,0.3858,0.3902,0.3652,0,0,0,0,0,0.2832,0.2883,0.2928,0.2985,0.3009,0.311,0.3167,0.3237,0.3345,0.3405,0.3486,0.3589,0.3699,0.3766,0.3855,0.3958,0.4001,0.4014,0.4025,0.4034,0.4086,0.4193,0.4219,0.3941,0.3941,0.3941,0,0,0.2854,0.2895,0.2928,0.2987,0.307,0.3111,0.3156,0.3276,0.333,0.3412,0.3532,0.364,0.3738,0.3871,0.3939,0.391,0.413,0.4042,0.4049,0.4098,0.4202,0.4229,0.4254,0.3946,0.3945,0.3944,0,0,0.2935,0.294,0.2995,0.3054,0.3166,0.3187,0.3224,0.3324,0.3389,0.3498,0.3593,0.3747,0.386,0.3973,0.4034,0.4154,0.419,0.4181,0.4275,0.4377,0.4401,0.4423,0.4487,0.4514,0.4179,0.4179,0.4179,0,0.2977,0.3002,0.3043,0.3103,0.3141,0.3213,0.3257,0.3321,0.3469,0.3529,0.3546,0.3813,0.3902,0.4101,0.4179,0.4181,0.4248,0.4212,0.4392,0.4415,0.4436,0.4497,0.4526,0.4183,0.4183,0.4182,0.4182,0,0.3049,0.3095,0.3147,0.3208,0.3248,0.3328,0.3364,0.3436,0.3485,0.3551,0.3756,0.3906,0.4075,0.4126,0.421,0.443,0.4431,0.4395,0.4356,0.4468,0.4524,0.4553,0.4189,0.4188,0.4186,0.4185,0,0,0.3099,0.3175,0.3194,0.3244,0.3299,0.3353,0.3406,0.3474,0.3573,0.3686,0.383,0.4052,0.4177,0.4265,0.4398,0.4528,0.4739,0.4569,0.4572,0.463,0.498,0.4523,0.4511,0.4757,0.4763,0.4768,0.4949,0,0.3162,0.3251,0.3244,0.3345,0.3389,0.3417,0.3469,0.3557,0.3643,0.3796,0.3953,0.416,0.4209,0.438,0.4509,0.4724,0.4828,0.4694,0.4869,0.4874,0.4451,0.4532,0.4311,0.4415,0.4977,0.4982,0.4985,0,0.3218,0.3265,0.3338,0.3427,0.3442,0.3497,0.3595,0.3678,0.3856,0.394,0.4138,0.4275,0.456,0.4557,0.4895,0.4827,0.4933,0.5035,0.5041,0.4622,0.447,0.4401,0.4447,0.5034,0.503,0.5026,0.5023,0,0.3227,0.3337,0.3387,0.3419,0.3502,0.3559,0.3619,0.3762,0.3858,0.4115,0.4228,0.4488,0.4703,0.4865,0.5042,0.5035,0.5343,0.5308,0.4969,0.4938,0.4782,0.4721,0.5503,0.5503,0.5502,0.5502,0.5501,0,0.3243,0.3285,0.3433,0.3456,0.3565,0.3643,0.379,0.3879,0.4072,0.4211,0.4381,0.455,0.4815,0.4977,0.5094,0.5084,0.535,0.5012,0.4958,0.4785,0.4724,0.5288,0.526,0.5509,0.5507,0.5506,0.5505,0,0.3183,0.3266,0.3359,0.35,0.3582,0.3671,0.3854,0.3953,0.4159,0.4358,0.4454,0.469,0.4893,0.5016,0.5297,0.5113,0.5169,0.5087,0.4819,0.472,0.4701,0.4676,0.4755,0.474,0.4728,0.4718,0.4709,0,0.3158,0.3226,0.3408,0.3478,0.3536,0.3711,0.3811,0.3995,0.4097,0.4412,0.4486,0.4748,0.4836,0.4942,0.4826,0.4796,0.498,0.4385,0.4253,0.4687,0.463,0.4624,0.4616,0.4138,0.4126,0.4115,0.4107,0,0.3092,0.3167,0.3186,0.3381,0.3503,0.3633,0.3812,0.3886,0.4107,0.4245,0.4424,0.4539,0.4647,0.4472,0.4303,0.4241,0.4341,0.4145,0.4802,0.4236,0.4084,0.4032,0.4052,0.4015,0.4024,0.4031,0.4036,0.404,0.3019,0.3017,0.3096,0.3239,0.3401,0.3518,0.3586,0.3705,0.3816,0.3932,0.4135,0.4139,0.4159,0.3764,0.3641,0.3493,0.3742,0.3539,0.3585,0.364,0.3409,0.323,0.2963,0.2966,0.2968,0.2971,0.2973,0,0.2893,0.2872,0.2978,0.309,0.321,0.3405,0.3543,0.3514,0.3554,0.3609,0.3657,0.3283,0.3143,0.3233,0.2898,0.2695,0.2849,0.2555,0.2842,0.2931,0.301,0.2762,0.2138,0.2135,0.2132,0.213,0,0,0.2742,0.2704,0.2742,0.2863,0.3064,0.3179,0.3263,0.3183,0.316,0.2984,0.2915,0.2959,0.3106,0.257,0.2473,0.2308,0.2622,0.2207,0.289,0.3326,0.3404,0.3583,0.3292,0,0,0,0,0]},{"header":{"parameterUnit":"m.s-1","parameterCategory":2,"la1":30.2991,"la2":30.254,"lo1":-89.0895,"lo2":-89.0444,"dy":0.0017,"dx":0.0017,"nx":28,"ny":28,"refTime":"2023-08-09T03:00:00:Z","depth":"2","parameterNumber":3,"parameterNumberName":"V-component_of_CURRENTS"},"data":[0,0,0,0,0,0,0,0,0,0,0,0,0,0,0,0,0,0,0,0,0,0,0,0,0,0,0,0,0,0,0,0,0,0,0,0,0,0,0,0,0,0,0,0,0,0,0,0,0,0,0,0,0,0,0,0,0,0,-0.0083,-0.0082,0,-0.013,-0.0132,-0.0133,-0.0237,-0.0238,-0.0239,-0.024,-0.0415,-0.0419,-0.0423,0,0,0,0,0,0,0,0,0,0,0,0,0,-0.01,-0.01,-0.0083,-0.0082,-0.0082,-0.013,-0.0132,-0.0134,-0.0237,-0.0238,-0.0239,-0.024,-0.0414,-0.0419,-0.0423,0,0,0,0,0,0,0,0,0,0,0,0,0,-0.0126,-0.01,-0.0083,-0.013,-0.0134,-0.013,-0.0132,-0.0134,-0.0236,-0.0238,-0.0239,-0.0241,-0.0413,-0.0418,-0.0424,-0.0427,0,0,-0.0441,-0.0443,0,0,0,0,0,0,0,0,-0.0124,-0.0127,-0.0124,-0.0127,-0.0131,-0.0169,-0.0202,-0.0234,-0.0236,-0.021,-0.024,-0.0242,-0.0336,-0.0348,-0.0368,-0.0435,-0.0443,-0.0441,-0.0445,-0.0447,-0.0449,0,0,0,0,0,0,0,-0.0122,-0.0125,-0.0114,-0.0123,-0.0127,-0.0155,-0.0161,-0.0209,-0.0275,-0.0212,-0.0217,-0.0203,-0.0341,-0.0363,-0.0373,-0.0445,-0.0441,-0.0446,-0.0449,-0.0452,-0.0507,-0.0505,0,0,0,0,0,0,-0.009,-0.0123,-0.0112,-0.0114,-0.0118,-0.0152,-0.016,-0.0165,-0.0272,-0.0285,-0.0202,-0.0208,-0.0352,-0.0367,-0.038,-0.0359,-0.0447,-0.0452,-0.0455,-0.0509,-0.0506,-0.0504,0,0,0,0,0,0,-0.0091,-0.0089,-0.011,-0.0109,-0.0112,-0.0149,-0.0154,-0.0165,-0.018,-0.026,-0.0279,-0.0204,-0.0354,-0.0372,-0.0418,-0.0368,-0.0455,-0.046,-0.0511,-0.0508,-0.0505,-0.0338,0,0,0,0,0,0,-0.0091,-0.009,-0.0083,-0.0107,-0.0111,-0.0085,-0.0152,-0.0164,-0.0163,-0.0172,-0.0268,-0.0287,-0.0357,-0.0409,-0.0424,-0.0377,-0.0464,-0.0513,-0.0509,-0.0506,-0.0346,-0.033,-0.0316,0,0,0,0,0,-0.0092,-0.0081,-0.0083,-0.0081,-0.0101,-0.0082,-0.0087,-0.0127,-0.0161,-0.0152,-0.0228,-0.0283,-0.0397,-0.0413,-0.043,-0.0384,-0.0515,-0.0511,-0.0506,-0.0352,-0.0333,-0.0316,0,0,0,0,0,0,-0.007,-0.009,-0.0093,-0.0084,-0.0066,-0.0094,-0.0086,-0.0109,-0.016,-0.0175,-0.0273,-0.0295,-0.0311,-0.0372,-0.0387,-0.0389,-0.0459,-0.0458,-0.0336,-0.0318,-0.0303,-0.0252,-0.0469,0,0,0,0,0,-0.0057,-0.0067,-0.006,-0.0044,-0.0034,-0.0054,-0.0052,-0.0067,-0.0107,-0.0131,-0.0203,-0.0269,-0.0305,-0.0332,-0.0382,-0.039,-0.0431,-0.0368,-0.0353,-0.034,-0.0309,-0.0326,-0.0309,-0.049,-0.049,-0.0491,0,0,-0.0036,-0.0048,-0.0049,-0.004,-0.0039,-0.001,-0.0061,-0.0038,-0.0024,-0.0141,-0.017,-0.0221,-0.0295,-0.0303,-0.0314,-0.0351,-0.0311,-0.0334,-0.0322,-0.0298,-0.032,-0.0302,-0.0286,-0.0488,-0.0488,-0.0488,0,0,0.0016,-0.0009,0.0013,0.0026,0.0051,0.0035,0.0053,0.0036,0.0015,-0.0001,-0.0071,-0.009,-0.0176,-0.0199,-0.0225,-0.0155,-0.023,-0.0169,-0.0055,-0.0071,-0.0056,-0.0043,-0.0076,-0.0068,-0.0163,-0.0163,-0.0162,0,0.0045,0.0067,0.0033,0.007,0.0087,0.0063,0.0112,0.0096,0.0063,0.0066,0.0008,-0.005,-0.0119,-0.009,-0.0066,-0.0117,-0.0147,-0.0117,-0.0049,-0.0038,-0.0027,-0.0065,-0.0057,-0.0154,-0.0155,-0.0156,-0.0157,0,0.0119,0.0144,0.0163,0.0183,0.0199,0.0236,0.0229,0.0234,0.0197,0.0183,0.0195,0.0116,0.0093,0.0075,0.0019,0.0083,0.0031,-0.0026,-0.0089,0.0002,-0.0045,-0.004,-0.0142,-0.0145,-0.0147,-0.015,0,0,0.0145,0.0203,0.0207,0.0251,0.0258,0.0287,0.0313,0.0343,0.0388,0.0341,0.0397,0.034,0.0322,0.0295,0.0244,0.0233,0.0268,0.0151,0.0146,0.013,0.0229,0.0053,0.004,0.0225,0.0227,0.0228,0.0165,0,0.0216,0.0311,0.0306,0.0394,0.0442,0.0426,0.0462,0.0484,0.0477,0.0519,0.0478,0.0504,0.0399,0.0421,0.0396,0.0321,0.029,0.029,0.0134,0.0129,-0.0029,0.0043,0.009,0.0026,0.0169,0.017,0.017,0,0.0273,0.0329,0.0437,0.0514,0.0535,0.0579,0.0641,0.0683,0.0729,0.0731,0.0755,0.0719,0.0739,0.0621,0.0533,0.0542,0.0405,0.0316,0.031,0.0097,-0.0037,-0.0043,0.0028,0.0177,0.0176,0.0176,0.0175,0,0.0308,0.0405,0.0495,0.052,0.0609,0.0657,0.0701,0.0753,0.0825,0.0898,0.0965,0.0938,0.097,0.082,0.0614,0.0594,0.0482,0.0417,0.0122,0.0107,0.0091,0.007,0.0329,0.0329,0.0329,0.033,0.033,0,0.0362,0.0425,0.0528,0.0586,0.0699,0.0735,0.087,0.0908,0.1018,0.1152,0.1103,0.1202,0.1024,0.0925,0.0699,0.0425,0.0533,0.0165,0.0089,0.0145,0.013,0.0212,0.0199,0.0327,0.0328,0.0328,0.0329,0,0.0379,0.0448,0.0558,0.0682,0.073,0.0812,0.0981,0.1086,0.1181,0.1363,0.1408,0.143,0.1326,0.1067,0.0835,0.0543,0.0284,0.0134,0.0194,0.0123,-0.0094,-0.0097,-0.0148,-0.0154,-0.016,-0.0164,-0.0168,0,0.0394,0.0465,0.0629,0.0707,0.0768,0.0909,0.1023,0.1152,0.1286,0.1507,0.1609,0.1587,0.1569,0.1132,0.0677,0.0232,0.0203,-0.0095,-0.0149,-0.0069,-0.0137,-0.0132,-0.0128,-0.0089,-0.0092,-0.0094,-0.0096,0,0.0424,0.0488,0.0589,0.0761,0.0889,0.1053,0.1233,0.1377,0.1573,0.1746,0.1938,0.1947,0.1564,0.1145,0.0491,0.0197,-0.002,-0.0167,-0.0042,-0.0017,-0.0031,-0.0094,-0.0087,-0.0117,-0.0115,-0.0114,-0.0112,-0.0112,0.0434,0.0517,0.0671,0.0825,0.0964,0.1187,0.1386,0.1588,0.1853,0.2093,0.2079,0.2052,0.1575,0.074,0.0283,-0.0193,-0.0185,-0.0396,-0.038,-0.0362,-0.0386,-0.0414,-0.0575,-0.0575,-0.0576,-0.0576,-0.0576,0,0.0492,0.06,0.0734,0.095,0.1111,0.12,0.1524,0.1735,0.2077,0.2137,0.2228,0.1741,0.125,0.0768,0.0033,-0.046,-0.0393,-0.0581,-0.0381,-0.0361,-0.0342,-0.0356,-0.0541,-0.0542,-0.0542,-0.0543,0,0,0.0545,0.0706,0.0802,0.106,0.1203,0.1522,0.1748,0.2004,0.2136,0.2222,0.2135,0.1862,0.1304,0.0744,0.0187,-0.016,-0.0147,-0.0225,-0.0217,0.0104,0.0129,-0.0217,-0.0217,0,0,0,0,0]}],[{"header":{"parameterUnit":"m.s-1","parameterCategory":2,"la1":30.2991,"la2":30.254,"lo1":-89.0895,"lo2":-89.0444,"dy":0.0017,"dx":0.0017,"nx":28,"ny":28,"refTime":"2023-08-09T03:00:00:Z","depth":"4","parameterNumber":2,"parameterNumberName":"U-component_of_CURRENTS"},"data":[0,0,0,0,0,0,0,0,0,0,0,0,0,0,0,0,0,0,0,0,0,0,0,0,0,0,0,0,0,0,0,0,0,0,0,0,0,0,0,0,0,0,0,0,0,0,0,0,0,0,0,0,0,0,0,0,0,0,0.0475,0.0476,0,0.0552,0.0552,0.0553,0.0636,0.0637,0.0638,0.0639,0.0821,0.0824,0.0828,0,0,0,0,0,0,0,0,0,0,0,0,0,0.0408,0.0408,0.0475,0.0476,0.0477,0.0551,0.0552,0.0553,0.0636,0.0637,0.0639,0.064,0.0819,0.0824,0.0828,0,0,0,0,0,0,0,0,0,0,0,0,0,0.0456,0.0409,0.0475,0.0527,0.0532,0.0551,0.0552,0.0554,0.0635,0.0637,0.0639,0.0641,0.0818,0.0823,0.0829,0.0828,0,0,0.0846,0.0848,0,0,0,0,0,0,0,0,0.0453,0.0458,0.0518,0.0523,0.0529,0.0586,0.0595,0.0651,0.0635,0.0596,0.0639,0.0641,0.0751,0.0762,0.0771,0.0837,0.0844,0.0847,0.085,0.0852,0.0854,0,0,0,0,0,0,0,0.0449,0.0455,0.0505,0.0519,0.0526,0.0549,0.0558,0.0606,0.0665,0.06,0.0606,0.0614,0.0755,0.0765,0.0776,0.0847,0.0846,0.0851,0.0855,0.0857,0.1002,0.1002,0,0,0,0,0,0,0.0438,0.0452,0.0503,0.0508,0.0495,0.0549,0.0558,0.0566,0.0662,0.0677,0.0612,0.0617,0.0755,0.0769,0.0783,0.09,0.0852,0.0858,0.0861,0.1002,0.1002,0.1003,0,0,0,0,0,0,0.0436,0.0441,0.05,0.0482,0.0491,0.0548,0.0556,0.0567,0.062,0.067,0.0688,0.066,0.0757,0.0775,0.0882,0.0904,0.086,0.0865,0.1001,0.1002,0.1002,0.1062,0,0,0,0,0,0,0.0433,0.044,0.0454,0.0481,0.0491,0.0537,0.0554,0.0567,0.062,0.0629,0.0716,0.0732,0.0759,0.0874,0.0888,0.091,0.0869,0.1,0.1001,0.1002,0.106,0.1065,0.107,0,0,0,0,0,0.0431,0.0445,0.0454,0.0461,0.0504,0.0538,0.0547,0.0592,0.0621,0.0647,0.0726,0.0732,0.0887,0.0881,0.0897,0.0921,0.1,0.1001,0.1002,0.1058,0.1064,0.107,0,0,0,0,0,0,0.0419,0.0455,0.0466,0.0489,0.0521,0.0553,0.0582,0.0612,0.069,0.0722,0.0767,0.0789,0.088,0.0891,0.0881,0.0958,0.0932,0.0937,0.0969,0.0975,0.098,0.1007,0.0874,0,0,0,0,0,0.0419,0.045,0.0474,0.0498,0.0513,0.0553,0.0578,0.0617,0.0678,0.0715,0.0791,0.0849,0.0884,0.0929,0.0972,0.1036,0.1027,0.1048,0.1053,0.1058,0.1087,0.1078,0.1085,0.1006,0.1006,0.1006,0,0,0.0421,0.0446,0.0463,0.05,0.0528,0.0576,0.0575,0.0632,0.0697,0.0724,0.0861,0.0886,0.0906,0.0976,0.1013,0.1,0.1072,0.1059,0.1063,0.1091,0.108,0.1087,0.1094,0.1007,0.1007,0.1007,0,0,0.0436,0.0461,0.0489,0.0521,0.0575,0.0616,0.0641,0.0712,0.0765,0.0874,0.0895,0.0946,0.1039,0.1049,0.1057,0.1113,0.1098,0.1112,0.1172,0.1161,0.1168,0.1174,0.1163,0.1168,0.1115,0.1115,0.1115,0,0.043,0.0479,0.0503,0.0538,0.0582,0.0641,0.0694,0.0751,0.0865,0.092,0.0936,0.105,0.1065,0.1113,0.1128,0.1127,0.1123,0.1151,0.117,0.1175,0.118,0.1167,0.1172,0.1118,0.1118,0.1117,0.1117,0,0.047,0.0515,0.0537,0.0616,0.0663,0.0725,0.0798,0.0881,0.0962,0.1029,0.1128,0.1147,0.1215,0.1195,0.1189,0.1223,0.1208,0.1176,0.1158,0.1192,0.1176,0.1179,0.1122,0.1121,0.112,0.112,0,0,0.0433,0.0543,0.0555,0.0609,0.0718,0.0765,0.0873,0.0984,0.1083,0.117,0.1272,0.1299,0.1329,0.1338,0.1315,0.1298,0.1311,0.1267,0.1264,0.1264,0.13,0.1287,0.1289,0.1288,0.1289,0.129,0.1271,0,0.0459,0.0544,0.0606,0.0724,0.0776,0.0865,0.0975,0.1088,0.119,0.1317,0.1323,0.1429,0.1376,0.1416,0.139,0.1344,0.1326,0.132,0.1262,0.1261,0.1251,0.1295,0.1293,0.1274,0.1274,0.1275,0.1275,0,0.0476,0.054,0.0649,0.0795,0.0831,0.0946,0.1128,0.1228,0.1386,0.1458,0.1538,0.1577,0.16,0.1534,0.1481,0.1488,0.1414,0.1352,0.1349,0.1327,0.1255,0.1233,0.1281,0.1281,0.128,0.128,0.1279,0,0.0437,0.057,0.0675,0.0721,0.0899,0.1003,0.1131,0.1304,0.1408,0.1577,0.1661,0.1705,0.1741,0.1662,0.1543,0.1536,0.1451,0.1417,0.1329,0.1326,0.1315,0.1309,0.1371,0.1371,0.1371,0.1371,0.1371,0,0.0436,0.051,0.0694,0.0746,0.0921,0.1045,0.1247,0.1364,0.1547,0.1632,0.1758,0.1772,0.1777,0.1722,0.1595,0.1478,0.1492,0.1367,0.1332,0.1338,0.1334,0.1317,0.1311,0.137,0.137,0.137,0.137,0,0.0373,0.0484,0.0604,0.0818,0.0908,0.1046,0.1312,0.1428,0.1621,0.1717,0.1776,0.187,0.1819,0.1777,0.1646,0.1559,0.1429,0.1364,0.1387,0.1348,0.1306,0.1303,0.1328,0.1328,0.1328,0.1327,0.1327,0,0.0357,0.041,0.0632,0.0738,0.0865,0.1084,0.1218,0.1445,0.1516,0.1684,0.1671,0.1767,0.177,0.1632,0.1565,0.1439,0.138,0.1353,0.1342,0.1344,0.1307,0.1305,0.1302,0.1327,0.1327,0.1327,0.1326,0,0.0309,0.0395,0.0496,0.0706,0.0884,0.103,0.1213,0.1251,0.1421,0.1596,0.1604,0.164,0.1609,0.1564,0.1529,0.1377,0.1412,0.135,0.135,0.1339,0.1342,0.1305,0.1303,0.1325,0.1326,0.1326,0.1326,0,0.0279,0.0337,0.0487,0.0661,0.0846,0.0927,0.1038,0.1135,0.1256,0.1423,0.1364,0.1444,0.1533,0.1519,0.1393,0.1378,0.1361,0.1321,0.1322,0.1323,0.1331,0.1335,0.131,0,0,0,0,0,0.0253,0.0299,0.0436,0.06,0.0756,0.0854,0.1,0.1081,0.1185,0.1181,0.1311,0.1269,0.13,0.132,0.1299,0.1331,0.131,0.1299,0.125,0.132,0.1321,0.1331,0,0,0,0,0,0,0.0246,0.0349,0.0391,0.0501,0.0576,0.0726,0.0794,0.0864,0.0885,0.1013,0.1037,0.1207,0.1229,0.1287,0.1269,0.1278,0.1232,0.1371,0.1369,0.1319,0.132,0.1321,0.1332,0,0,0,0,0]},{"header":{"parameterUnit":"m.s-1","parameterCategory":2,"la1":30.2991,"la2":30.254,"lo1":-89.0895,"lo2":-89.0444,"dy":0.0017,"dx":0.0017,"nx":28,"ny":28,"refTime":"2023-08-09T03:00:00:Z","depth":"4","parameterNumber":3,"parameterNumberName":"V-component_of_CURRENTS"},"data":[0,0,0,0,0,0,0,0,0,0,0,0,0,0,0,0,0,0,0,0,0,0,0,0,0,0,0,0,0,0,0,0,0,0,0,0,0,0,0,0,0,0,0,0,0,0,0,0,0,0,0,0,0,0,0,0,0,0,0.0254,0.0254,0,0.0186,0.0185,0.0183,0.0148,0.0148,0.0149,0.0149,-0.0034,-0.0039,-0.0045,0,0,0,0,0,0,0,0,0,0,0,0,0,0.0306,0.0305,0.0254,0.0254,0.0253,0.0186,0.0184,0.0183,0.0148,0.0148,0.0149,0.0149,-0.0033,-0.0039,-0.0045,0,0,0,0,0,0,0,0,0,0,0,0,0,0.0262,0.0305,0.0254,0.023,0.0228,0.0186,0.0184,0.0183,0.0148,0.0148,0.0149,0.0149,-0.0031,-0.0038,-0.0046,-0.0102,0,0,-0.007,-0.0073,0,0,0,0,0,0,0,0,0.0264,0.0259,0.0234,0.0232,0.0229,0.0179,0.0136,0.0083,0.0148,0.0174,0.0149,0.0149,0.0028,0.0016,-0.0002,-0.0111,-0.0119,-0.007,-0.0075,-0.0078,-0.008,0,0,0,0,0,0,0,0.0267,0.0262,0.0223,0.0234,0.0231,0.0206,0.02,0.0125,0.0095,0.0172,0.017,0.0168,0.0026,0.0006,-0.0007,-0.0122,-0.007,-0.0077,-0.0082,-0.0085,-0.0327,-0.0328,0,0,0,0,0,0,0.0285,0.0265,0.0226,0.0222,0.0252,0.0205,0.0199,0.0192,0.0098,0.0086,0.0168,0.0167,0.0019,0.0003,-0.0013,-0.0108,-0.0078,-0.0085,-0.009,-0.0325,-0.0327,-0.0329,0,0,0,0,0,0,0.0286,0.0282,0.0228,0.0245,0.0237,0.0205,0.0197,0.019,0.0171,0.0097,0.0082,0.0157,0.0019,-0.0002,-0.0094,-0.0115,-0.0089,-0.0096,-0.0323,-0.0326,-0.0328,-0.0285,0,0,0,0,0,0,0.0288,0.0283,0.0286,0.0246,0.0237,0.0202,0.0196,0.0189,0.0171,0.0169,0.0082,0.0066,0.0017,-0.0082,-0.0102,-0.0125,-0.0102,-0.0321,-0.0324,-0.0327,-0.0284,-0.0286,-0.0287,0,0,0,0,0,0.029,0.029,0.0287,0.0282,0.0242,0.0202,0.0194,0.017,0.017,0.0156,0.0091,0.0068,-0.0117,-0.009,-0.0113,-0.0139,-0.0319,-0.0323,-0.0327,-0.0283,-0.0285,-0.0287,0,0,0,0,0,0,0.0307,0.0286,0.0281,0.0273,0.0242,0.0197,0.0191,0.0171,0.0111,0.0109,0.0039,0.0016,-0.0077,-0.0117,-0.0086,-0.022,-0.022,-0.0229,-0.0179,-0.0182,-0.0183,-0.0175,-0.0108,0,0,0,0,0,0.0316,0.0317,0.0281,0.0276,0.0265,0.0229,0.0213,0.0192,0.0138,0.0115,0.0049,-0.0026,-0.0112,-0.0151,-0.0233,-0.0304,-0.0355,-0.0335,-0.0337,-0.0338,-0.0349,-0.0458,-0.047,-0.0342,-0.0342,-0.0342,0,0,0.0319,0.0313,0.031,0.0281,0.0261,0.0231,0.0219,0.0195,0.0157,0.0099,0.0024,-0.0044,-0.0137,-0.0222,-0.0265,-0.0254,-0.0396,-0.0343,-0.0342,-0.0353,-0.0464,-0.0476,-0.0487,-0.0345,-0.0344,-0.0344,0,0,0.0328,0.0323,0.0325,0.0297,0.0272,0.0242,0.0236,0.0184,0.015,0.0073,0.0014,-0.0071,-0.018,-0.0258,-0.0309,-0.0374,-0.0411,-0.0385,-0.0377,-0.0482,-0.0493,-0.0504,-0.0554,-0.057,-0.0373,-0.0373,-0.0373,0,0.0333,0.0329,0.0315,0.0302,0.0279,0.0248,0.0223,0.0177,0.0096,0.005,0.0053,-0.0139,-0.0206,-0.0333,-0.0342,-0.0379,-0.0418,-0.0353,-0.0483,-0.0494,-0.0506,-0.0555,-0.0573,-0.0371,-0.0371,-0.0371,-0.0372,0,0.0327,0.0327,0.0324,0.0298,0.0267,0.0243,0.0182,0.0137,0.01,0.0043,-0.0081,-0.0176,-0.028,-0.0316,-0.0343,-0.0459,-0.0452,-0.0478,-0.0468,-0.0516,-0.0565,-0.0584,-0.0369,-0.0369,-0.037,-0.037,0,0,0.0328,0.0322,0.0323,0.0314,0.0262,0.0234,0.0168,0.0088,0.0041,-0.0046,-0.0131,-0.0264,-0.0295,-0.0356,-0.0409,-0.0492,-0.0587,-0.0496,-0.0503,-0.0528,-0.0777,-0.0632,-0.0638,-0.0624,-0.0628,-0.0631,-0.0766,0,0.0326,0.0322,0.0305,0.0276,0.0262,0.0206,0.0151,0.0071,-0.0001,-0.0092,-0.0205,-0.0288,-0.0316,-0.0339,-0.0441,-0.057,-0.064,-0.0546,-0.0745,-0.075,-0.0601,-0.0658,-0.0644,-0.0781,-0.0785,-0.0788,-0.0791,0,0.0319,0.0321,0.032,0.0277,0.0264,0.0255,0.0163,0.0108,-0.0026,-0.0081,-0.019,-0.0276,-0.0417,-0.0413,-0.0658,-0.0588,-0.067,-0.0759,-0.0767,-0.0663,-0.0641,-0.0737,-0.0826,-0.0823,-0.082,-0.0818,-0.0816,0,0.034,0.0318,0.0331,0.0316,0.027,0.0269,0.0244,0.0135,0.0102,-0.0037,-0.0075,-0.0285,-0.0351,-0.0531,-0.0673,-0.0676,-0.0919,-0.0959,-0.091,-0.0899,-0.1007,-0.0995,-0.1121,-0.1121,-0.1121,-0.112,-0.112,0,0.0339,0.034,0.037,0.0378,0.0396,0.0339,0.0344,0.0273,0.0193,0.0122,-0.002,-0.0118,-0.038,-0.0542,-0.0691,-0.0832,-0.0933,-0.092,-0.0938,-0.098,-0.0964,-0.1018,-0.1004,-0.1125,-0.1124,-0.1123,-0.1122,0,0.0364,0.0378,0.04,0.0406,0.0432,0.0458,0.0489,0.046,0.0389,0.0292,0.0266,0.0013,-0.021,-0.0426,-0.0725,-0.0809,-0.0983,-0.099,-0.0972,-0.0985,-0.0898,-0.0882,-0.1014,-0.1011,-0.1007,-0.1005,-0.1003,0,0.0374,0.0403,0.047,0.0536,0.0574,0.0631,0.066,0.0597,0.0536,0.0351,0.0269,0.0079,-0.0106,-0.0394,-0.0637,-0.0883,-0.0892,-0.0962,-0.0988,-0.089,-0.0895,-0.0883,-0.087,-0.0998,-0.0997,-0.0996,-0.0995,0,0.04,0.0452,0.0478,0.0637,0.072,0.0758,0.077,0.0727,0.0574,0.0532,0.0307,0.0136,-0.0101,-0.0375,-0.05,-0.07,-0.0931,-0.0931,-0.094,-0.0966,-0.0872,-0.0877,-0.0868,-0.0984,-0.0986,-0.0987,-0.0987,0,0.0435,0.0475,0.0574,0.0677,0.0842,0.0855,0.0812,0.0722,0.0668,0.042,0.0344,0.0098,-0.0069,-0.0279,-0.0443,-0.0566,-0.0636,-0.0688,-0.0712,-0.0727,-0.0584,-0.0418,-0.0417,0,0,0,0,0,0.0475,0.0512,0.0611,0.0693,0.0866,0.0959,0.0881,0.078,0.0608,0.0487,0.0423,0.0211,-0.004,-0.0187,-0.0286,-0.042,-0.0672,-0.054,-0.0747,-0.0923,-0.0936,-0.0802,0,0,0,0,0,0,0.0496,0.06,0.0591,0.0744,0.0851,0.0961,0.0943,0.0764,0.0658,0.0498,0.0365,0.0279,0.0029,0.0087,-0.0235,-0.0288,-0.0422,-0.0665,-0.0666,-0.0916,-0.0928,-0.0938,-0.0805,0,0,0,0,0]}]]